HULIANWANG DIGUI-67

导读

HULIANWANG DIGUI-67(互联网低轨-67)是中国于2025年8月13日在文昌航天发射场发射的低轨互联网卫星,隶属于中国低轨卫星互联网星座组网工程。该卫星运行于近地轨道,主要为全球提供高速宽带互联网接入服务,重点覆盖偏远地区、航空与海洋场景,助力构建天地一体化信息网络,推动我国卫星互联网星座部署进程,发射任务取得圆满成功。

Basic Information
目录编号:
65173
目录名称:
HULIANWANG DIGUI-67
国际标识:
2025-174K
轨道中心:
EARTH
卫星名称:
HULIANWANG DIGUI-67
卫星全名:
HULIANWANG DIGUI-67
卫星状态:
在轨 (已飞行307 天)
发射日期:
2025-08-13 UTC
国别 :
中国 (CN)
星等 :
--
Orbit Information
数据来源 国际轨道数据 AOE轨道数据
星历时间 2026-06-16T14:38:30+0800
5小时前
查看轨道信息
2026-06-15T08:00:00+0800
1天前
查看轨道信息
半长轴 7546.071km 7546.072km
偏心率 0.0001787 0.0001731
轨道倾角 86.493° 86.493°
近地点辐角 96.297° 96.362°
升交点赤经 252.265° 252.695°
平近点角 263.837° 299.941°
近地点 1166.585km 1166.628km
远地点 1169.283km 1169.242km
周期 108.728分钟 108.728分钟
每日圈数 13.244069 13.244068
Detailed Information
使用方式:
暂无
2D Orbit Map
3D Orbit Map
Orbit Altitude Analysis Chart
Orbit Inclination Analysis Chart
Orbit Comprehensive Analysis Chart
View Comprehensive Chart